COSMOS 2251 DEB, 35016

Orbit data source: Space-Track

COSMOS 2251 DEB, 35016 is space debris in LEO originally from a launch on Wed, 16 Jun 1993 UTC launched from the Plesetsk Missile And Space Complex (PKMTR). The debris from Iridium 33, an American commercial communications satellite, has been tracked extensively since its accidental collision with the defunct Russian satellite Cosmos 2251 in 2009. This event, occurring at high speed in low Earth orbit (LEO), generated thousands of pieces of space debris, significantly increasing the risk of further collisions. The Iridium 33 debris cloud has impacted space traffic management and orbital debris mitigation strategies, making it a subject of ongoing study in space situational awareness.

Loading next visibility...
Identifier
35016, 1993-036AGD
Orbit
LEO
Country
Flag of CISCIS
Related business
Manufacturer
Unknown
Mission
Spacecraft
Bus & Motor
Unknown
Mass
Unknown
Launch date (UTC)
1993-06-16 (33 years ago)
Launch vehicle
Unknown
Launch site
Plesetsk Missile And Space Complex (PKMTR)
Object type
Payload
Rocket body
Debris
Shape & HBR
Unknown shape, 0.1 m
Radar Cross Section
Small (<0.1 m²)

Expand to show TLE details & history
Last TLE update: 11 hours ago

TLE from 11 hours ago
0 COSMOS 2251 DEB
1 35016U 93036AGD 25352.58756095  .00000675  00000-0  22903-3 0  9995
2 35016  73.9302 283.6309 0114217 199.3781 338.5902 14.35071452868662
Epoch: 2025-12-18T14:06Z
TLE epoch observation values (Epoch: 2025-12-18T14:06:05.266Z)
Latitude
2.32083°
Longitude
164.00271°
Altitude
701.215 km
Speed
7.545 km/s
True Right ascension
06h 51m 51s
True Declination
2° 18' 25"
Sunlit
Object was in full shadow at epoch
Visualization orbit readout
Latitude
Unknown
Longitude
Unknown
Altitude
Unknown
Speed
Unknown
Apparent Right ascension
Unknown
Apparent Declination
Unknown
Sunlit
N/A
Visualization observer readout
Local Sidereal Time
00:27:03
Azimuth
Unknown
Elevation
Unknown
Doppler factor
Unknown
Orbital elements
Apogee altitude
854.135 km
Perigee altitude
690.791 km
Semi-major axis
7,150.6 km
Eccentricity
0.01142
Inclination
73.9302°
RAAN
283.6309°
Arg. of periapsis
199.3781°
True anomaly
338.106°
Mean anomaly
338.5902°
Eccentric anomaly
338.34875°
Mean motion
3.58946 °/min
Orbital period
100.29 mins
BSTAR
0.00022903
Loading maneuver chart data...
Computing Atmospheric mass density...
Loading historical data...
Loading historical data...
Loading historical data...
Loading historical data...
Loading historical data...
Loading historical data...
Loading historical data...

Documentation

Showing up to 5 results
|